EW9092 Weather Reports


Display with metric or nautical units.
time (UTC)temp
F
wind
direction
speed
MPH
gust
MPH
rain 1hr
in
rain 24hr
in
rain mn
in
humidity
%
barometer
mb
20260503004634 85 88 2.0 6.0 0.00 0.00 0.00 20 1011.9
20260503004133 85 74 1.0 6.0 0.00 0.00 0.00 19 1011.8
20260503003855 85 167 1.0 6.0 0.00 0.00 0.00 19 1011.8
20260503003129 85 152 2.0 6.0 0.00 0.00 0.00 19 1011.9
20260503002627 86 116 1.0 5.0 0.00 0.00 0.00 19 1011.9
20260503002350 86 195 2.0 5.0 0.00 0.00 0.00 19 1011.8
20260503001626 86 113 2.0 5.0 0.00 0.00 0.00 19 1011.8
20260503001346 87 77 3.0 5.0 0.00 0.00 0.00 19 1011.9
20260503000626 87 84 3.0 7.0 0.00 0.00 0.00 18 1011.8
20260503000125 87 208 3.0 7.0 0.00 0.00 0.00 18 1011.8
20260502235624 87 72 3.0 7.0 0.00 0.00 0.00 18 1011.8
20260502235121 87 65 3.0 7.0 0.00 0.00 0.00 18 1011.8
20260502234839 87 60 3.0 7.0 0.00 0.00 0.00 18 1011.9
20260502234119 87 100 3.0 8.0 0.00 0.00 0.00 18 1011.9
20260502233618 87 125 3.0 8.0 0.00 0.00 0.00 18 1011.9
20260502233348 87 131 4.0 8.0 0.00 0.00 0.00 18 1011.8
20260502232615 87 150 2.0 8.0 0.00 0.00 0.00 18 1011.9
20260502232117 87 161 1.0 7.0 0.00 0.00 0.00 18 1011.9
20260502231613 87 55 1.0 7.0 0.00 0.00 0.00 18 1012.1
20260502231341 87 36 1.0 4.0 0.00 0.00 0.00 16 1012.2
20260502230848 88 33 2.0 6.0 0.00 0.00 0.00 16 1012.2
20260502230113 88 283 2.0 6.0 0.00 0.00 0.00 16 1012.1
20260502225832 87 302 2.0 5.0 0.00 0.00 0.00 16 1012.1
20260502225114 87 274 2.0 5.0 0.00 0.00 0.00 16 1012.2
20260502224611 88 266 2.0 7.0 0.00 0.00 0.00 16 1012.2
20260502224551 89 240 2.0 7.0 0.00 0.00 0.00 15 1012.2
20260502223609 89 328 2.0 6.0 0.00 0.00 0.00 16 1012.3
20260502223110 89 217 3.0 8.0 0.00 0.00 0.00 16 1012.4
20260502222607 89 115 3.0 9.0 0.00 0.00 0.00 16 1012.3
20260502222107 89 167 4.0 11.0 0.00 0.00 0.00 15 1012.4
20260502221607 89 129 5.0 11.0 0.00 0.00 0.00 14 1012.5
20260502221332 90 85 4.0 10.0 0.00 0.00 0.00 15 1012.5
20260502220611 90 210 2.0 6.0 0.00 0.00 0.00 15 1012.5
20260502220105 89 195 2.0 7.0 0.00 0.00 0.00 14 1012.6
20260502215555 89 260 3.0 7.0 0.00 0.00 0.00 14 1012.7
20260502215049 88 219 4.0 8.0 0.00 0.00 0.00 14 1012.9
20260502214546 88 212 5.0 8.0 0.00 0.00 0.00 13 1013.1
20260502214044 88 250 5.0 9.0 0.00 0.00 0.00 15 1013.2
20260502213545 88 272 5.0 11.0 0.00 0.00 0.00 15 1013.2
20260502213307 89 274 4.0 11.0 0.00 0.00 0.00 15 1013.3
20260502212543 89 233 3.0 7.0 0.00 0.00 0.00 14 1013.3
20260502212044 88 252 3.0 7.0 0.00 0.00 0.00 14 1013.3
20260502211543 88 299 4.0 11.0 0.00 0.00 0.00 14 1013.4
20260502211041 89 149 3.0 11.0 0.00 0.00 0.00 14 1013.4
20260502210547 89 216 3.0 10.0 0.00 0.00 0.00 15 1013.5
20260502210042 89 306 5.0 10.0 0.00 0.00 0.00 14 1013.6
20260502205541 89 219 4.0 10.0 0.00 0.00 0.00 14 1013.6
20260502205043 88 223 2.0 9.0 0.00 0.00 0.00 15 1013.6
20260502204541 88 203 1.0 7.0 0.00 0.00 0.00 16 1013.8
20260502204042 87 35 1.0 7.0 0.00 0.00 0.00 16 1013.8
20260502203536 87 16 1.0 6.0 0.00 0.00 0.00 17 1013.9
20260502203035 87 286 2.0 6.0 0.00 0.00 0.00 17 1013.9
20260502202535 86 204 3.0 7.0 0.00 0.00 0.00 17 1014.1
20260502202306 87 353 4.0 8.0 0.00 0.00 0.00 17 1014.1
20260502201800 87 269 4.0 9.0 0.00 0.00 0.00 17 1014.2
20260502201035 87 86 4.0 14.0 0.00 0.00 0.00 17 1014.2
20260502200800 87 58 4.0 14.0 0.00 0.00 0.00 16 1014.4
20260502200255 87 110 5.0 12.0 0.00 0.00 0.00 15 1014.4
20260502195532 87 135 5.0 12.0 0.00 0.00 0.00 15 1014.4
20260502195034 87 91 5.0 13.0 0.00 0.00 0.00 18 1014.5
20260502194533 86 262 5.0 13.0 0.00 0.00 0.00 17 1014.5
20260502194038 86 227 3.0 11.0 0.00 0.00 0.00 19 1014.6
20260502193534 85 140 2.0 6.0 0.00 0.00 0.00 21 1014.6
20260502193034 83 85 2.0 6.0 0.00 0.00 0.00 21 1014.7
20260502192534 82 79 1.0 3.0 0.00 0.00 0.00 23 1014.7
20260502192028 82 75 1.0 4.0 0.00 0.00 0.00 24 1014.7
20260502191525 82 79 2.0 6.0 0.00 0.00 0.00 23 1014.8
20260502191023 82 139 1.0 6.0 0.00 0.00 0.00 24 1014.9
20260502190523 82 239 1.0 4.0 0.00 0.00 0.00 24 1014.9
20260502190021 82 25 2.0 8.0 0.00 0.00 0.00 23 1015.0
20260502185520 83 48 2.0 8.0 0.00 0.00 0.00 23 1015.2
20260502185252 83 133 4.0 10.0 0.00 0.00 0.00 23 1015.1
20260502184521 83 56 6.0 13.0 0.00 0.00 0.00 23 1015.2
20260502184022 83 118 6.0 15.0 0.00 0.00 0.00 24 1015.3
20260502183519 83 39 6.0 15.0 0.00 0.00 0.00 24 1015.4
20260502183016 83 58 8.0 18.0 0.00 0.00 0.00 24 1015.4
20260502183002 82 15 7.0 18.0 0.00 0.00 0.00 25 1015.4
20260502182018 82 58 6.0 15.0 0.00 0.00 0.00 26 1015.7
20260502181518 82 17 7.0 15.0 0.00 0.00 0.00 25 1015.8
20260502181017 82 46 8.0 17.0 0.00 0.00 0.00 26 1015.8
20260502180521 81 48 9.0 17.0 0.00 0.00 0.00 27 1015.8
20260502170354 79 40 7.0 14.0 0.00 0.00 0.00 30 1016.1
20260502164322 78 11 8.0 19.0 0.00 0.00 0.00 32 1016.1
20260502163816 78 18 6.0 15.0 0.00 0.00 0.00 32 1016.1
20260502163304 78 37 4.0 11.0 0.00 0.00 0.00 32 1016.1
20260502162800 77 103 6.0 23.0 0.00 0.00 0.00 33 1016.0
20260502162253 76 22 9.0 23.0 0.00 0.00 0.00 34 1016.1
20260502161753 76 24 8.0 20.0 0.00 0.00 0.00 34 1016.1
20260502161510 77 32 6.0 16.0 0.00 0.00 0.00 33 1016.2
20260502160751 77 70 5.0 15.0 0.00 0.00 0.00 33 1016.1
20260502160251 77 44 4.0 10.0 0.00 0.00 0.00 33 1016.2
20260502152251 74 66 6.0 11.0 0.00 0.00 0.00 37 1016.1
20260502151749 73 8 6.0 14.0 0.00 0.00 0.00 37 1016.1
20260502151249 73 69 6.0 14.0 0.00 0.00 0.00 37 1016.1
20260502150748 73 1 6.0 12.0 0.00 0.00 0.00 38 1016.0
20260502150248 72 58 5.0 13.0 0.00 0.00 0.00 39 1016.0
20260502130742 64 144 1.0 7.0 0.00 0.00 0.00 44 1014.5
20260502130242 64 333 0.0 2.0 0.00 0.00 0.00 45 1014.4
20260502123738 64 82 0.0 2.0 0.00 0.00 0.00 46 1014.0
20260502123232 64 82 1.0 6.0 0.00 0.00 0.00 45 1013.9
20260502122721 64 78 2.0 6.0 0.00 0.00 0.00 45 1013.8
20260502122214 64 61 2.0 6.0 0.00 0.00 0.00 44 1013.7
20260502121710 64 30 2.0 6.0 0.00 0.00 0.00 43 1013.7
20260502121200 64 60 2.0 6.0 0.00 0.00 0.00 41 1013.8
20260502120654 64 30 2.0 6.0 0.00 0.00 0.00 40 1013.8
20260502120148 64 57 2.0 6.0 0.00 0.00 0.00 40 1013.7
20260502115642 64 72 2.0 5.0 0.00 0.00 0.00 39 1013.7
20260502115136 63 77 1.0 5.0 0.00 0.00 0.00 38 1013.7
20260502115107 62 73 1.0 3.0 0.00 0.00 0.00 37 1013.8
20260502114120 61 75 0.0 3.0 0.00 0.00 0.00 37 1013.8
20260502113614 60 86 0.0 2.0 0.00 0.00 0.00 37 1013.8
20260502113108 61 15 1.0 6.0 0.00 0.00 0.00 36 1013.8
20260502112556 62 4 1.0 6.0 0.00 0.00 0.00 35 1013.9
20260502112052 64 79 1.0 3.0 0.00 0.00 0.00 33 1013.8
20260502111546 62 135 1.0 2.0 0.00 0.00 0.00 35 1013.8
20260502111034 61 136 0.0 2.0 0.00 0.00 0.00 37 1013.8
20260502110530 60 139 0.0 1.0 0.00 0.00 0.00 37 1013.9
20260502110024 61 166 0.0 2.0 0.00 0.00 0.00 38 1013.8
20260502105514 61 178 0.0 2.0 0.00 0.00 0.00 38 1013.9
20260502105008 61 222 0.0 2.0 0.00 0.00 0.00 37 1013.8
20260502104502 62 222 0.0 2.0 0.00 0.00 0.00 36 1013.8
20260502103952 63 223 1.0 4.0 0.00 0.00 0.00 34 1013.8
20260502103446 63 76 1.0 4.0 0.00 0.00 0.00 34 1013.7
20260502102939 61 93 0.0 2.0 0.00 0.00 0.00 36 1013.5
20260502102655 61 352 0.0 0.0 0.00 0.00 0.00 37 1013.5
20260502101924 61 352 0.0 0.0 0.00 0.00 0.00 37 1013.5
20260502101418 61 350 0.0 0.0 0.00 0.00 0.00 37 1013.5
20260502101126 61 350 0.0 0.0 0.00 0.00 0.00 37 1013.5
20260502100623 61 350 0.0 0.0 0.00 0.00 0.00 37 1013.5
20260502100123 61 350 0.0 0.0 0.00 0.00 0.00 38 1013.5
20260502091250 64 1 0.0 0.0 0.00 0.00 0.00 34 1013.5
20260502090739 64 1 0.0 0.0 0.00 0.00 0.00 33 1013.4
20260502090234 65 1 0.0 0.0 0.00 0.00 0.00 32 1013.4
20260502080106 67 162 2.0 4.0 0.00 0.00 0.00 31 1013.7
20260502070953 67 103 1.0 3.0 0.00 0.00 0.00 31 1013.7
20260502070448 68 137 0.0 3.0 0.00 0.00 0.00 31 1013.7
20260502065944 68 140 0.0 1.0 0.00 0.00 0.00 29 1013.7
20260502065700 69 122 0.0 1.0 0.00 0.00 0.00 29 1013.7
20260502064944 69 122 0.0 1.0 0.00 0.00 0.00 28 1013.7
20260502064442 69 118 0.0 2.0 0.00 0.00 0.00 28 1013.6
20260502063942 69 133 0.0 2.0 0.00 0.00 0.00 28 1013.5
20260502063442 69 143 0.0 1.0 0.00 0.00 0.00 29 1013.6
20260502063201 69 88 0.0 2.0 0.00 0.00 0.00 30 1013.5
20260502062441 69 87 0.0 2.0 0.00 0.00 0.00 30 1013.4
20260502061942 69 83 0.0 0.0 0.00 0.00 0.00 30 1013.3
20260502061438 69 134 0.0 0.0 0.00 0.00 0.00 30 1013.3
20260502060936 69 134 0.0 0.0 0.00 0.01 0.00 30 1013.2
20260502060434 69 133 0.0 0.0 0.00 0.01 0.00 29 1013.2
20260502060413 70 133 0.0 0.0 0.00 0.01 0.00 29 1013.1
20260502055432 70 87 0.0 0.0 0.00 0.01 0.00 29 1012.9
20260502054933 70 82 1.0 2.0 0.00 0.01 0.00 29 1012.9
20260502054427 70 82 1.0 2.0 0.00 0.01 0.00 28 1012.9
20260502053921 71 285 0.0 1.0 0.00 0.01 0.00 28 1012.8
20260502053417 71 273 0.0 1.0 0.00 0.01 0.00 28 1012.9
20260502052918 71 273 0.0 1.0 0.00 0.01 0.00 28 1012.8
20260502052416 71 274 1.0 2.0 0.00 0.01 0.00 28 1012.8
20260502051918 71 274 1.0 3.0 0.00 0.01 0.00 27 1012.7
20260502051412 71 255 1.0 3.0 0.00 0.01 0.00 28 1012.7
20260502051128 71 265 0.0 2.0 0.00 0.01 0.00 28 1012.7
20260502050409 71 269 0.0 0.0 0.00 0.01 0.00 28 1012.7
20260502045910 71 250 0.0 0.0 0.00 0.01 0.00 28 1012.7
20260502045409 71 250 0.0 0.0 0.00 0.01 0.00 28 1012.6
20260502044907 71 250 0.0 0.0 0.00 0.01 0.00 28 1012.5
20260502044404 71 249 0.0 0.0 0.00 0.01 0.00 28 1012.5
20260502043902 71 250 0.0 0.0 0.00 0.01 0.00 27 1012.5
20260502043403 72 249 0.0 1.0 0.00 0.01 0.00 26 1012.5
20260502042904 72 250 0.0 1.0 0.00 0.01 0.00 26 1012.5
20260502042624 72 250 0.0 0.0 0.00 0.01 0.00 27 1012.4
20260502041901 72 250 0.0 0.0 0.00 0.01 0.00 27 1012.4
20260502041355 72 253 0.0 0.0 0.00 0.01 0.00 27 1012.3
20260502040849 73 253 0.0 0.0 0.00 0.01 0.00 26 1012.2
20260502040344 73 253 0.0 0.0 0.00 0.01 0.00 26 1012.1
20260502040106 73 253 0.0 0.0 0.00 0.01 0.00 25 1012.1
20260502035343 73 253 0.0 0.0 0.00 0.01 0.00 25 1012.0
20260502034844 73 258 0.0 0.0 0.00 0.01 0.00 26 1012.0
20260502034343 72 258 0.0 0.0 0.00 0.01 0.00 26 1012.0
20260502033840 72 258 0.0 0.0 0.00 0.01 0.00 26 1011.9
20260502033337 73 258 0.0 0.0 0.00 0.01 0.00 25 1011.9
20260502033102 73 258 0.0 0.0 0.00 0.01 0.00 26 1011.8
20260502032340 74 258 0.0 0.0 0.00 0.01 0.00 24 1011.8
20260502031840 74 258 0.0 0.0 0.00 0.01 0.00 23 1011.6
20260502031342 75 258 0.0 0.0 0.00 0.01 0.00 23 1011.5
20260502030841 75 258 0.0 0.0 0.00 0.01 0.00 23 1011.5
20260502030333 75 258 0.0 0.0 0.00 0.01 0.00 23 1011.4
20260502025837 76 258 0.0 0.0 0.00 0.01 0.00 22 1011.3
20260502025337 76 258 0.0 0.0 0.00 0.01 0.00 22 1011.2
20260502024836 76 258 0.0 0.0 0.00 0.01 0.00 22 1011.2
20260502024336 77 258 0.0 1.0 0.00 0.01 0.00 21 1011.1
20260502023836 77 257 0.0 2.0 0.00 0.01 0.00 20 1011.1
20260502023604 78 257 1.0 3.0 0.00 0.01 0.00 20 1011.0
20260502022838 78 278 1.0 3.0 0.00 0.01 0.00 20 1011.0
20260502022338 78 283 1.0 3.0 0.00 0.01 0.00 20 1011.0
20260502021839 79 279 1.0 3.0 0.00 0.01 0.00 20 1010.9
20260502021337 79 276 1.0 3.0 0.00 0.01 0.00 19 1010.9
20260502020838 79 264 1.0 4.0 0.00 0.01 0.00 19 1010.9
20260502020338 80 294 1.0 4.0 0.00 0.01 0.00 18 1010.7
20260502015835 80 282 1.0 5.0 0.00 0.01 0.00 19 1010.7
20260502015335 80 293 1.0 5.0 0.00 0.01 0.00 19 1010.7
20260502014834 81 319 2.0 7.0 0.00 0.01 0.00 19 1010.7
20260502014331 81 304 2.0 7.0 0.00 0.01 0.00 18 1010.6
20260502013830 82 333 2.0 5.0 0.00 0.01 0.00 18 1010.6
20260502013330 82 283 2.0 5.0 0.00 0.01 0.00 18 1010.6
20260502012830 83 277 2.0 6.0 0.00 0.01 0.00 17 1010.5
20260502012329 83 285 3.0 6.0 0.00 0.01 0.00 17 1010.5
20260502012311 83 269 3.0 6.0 0.00 0.01 0.00 17 1010.5
20260502011329 83 276 3.0 7.0 0.00 0.01 0.00 17 1010.5
20260502010831 83 281 3.0 7.0 0.00 0.01 0.00 17 1010.3
20260502010329 83 260 2.0 6.0 0.00 0.01 0.00 17 1010.3
20260502005829 84 324 2.0 7.0 0.00 0.01 0.00 17 1010.3
20260502005600 83 328 3.0 7.0 0.00 0.01 0.00 17 1010.2
20260502004828 83 269 4.0 11.0 0.00 0.01 0.00 17 1010.2